Weather History for McGuire AFB, NJ

Change the Weather History Date:

Friday, April 19, 2013

  Actual Average Record
Temperature  
Mean Temperature 67 °F -  
Max Temperature 78 °F 62 °F 91 °F (2002)
Min Temperature 58 °F 41 °F 33 °F (2001)
Cooling Degree Days 2    
Growing Degree Days 17 (Base 50)    
Moisture  
Dew Point 61 °F    
Average Humidity 84    
Maximum Humidity 100    
Minimum Humidity 61    
Precipitation  
Precipitation 0.06 in - - ()
Sea Level Pressure  
Sea Level Pressure 29.86 in    
Wind  
Wind Speed 13 mph (SSW)    
Max Wind Speed 25 mph    
Max Gust Speed 37 mph    
Visibility 10 miles    
Events Rain    
Averages and records for this station are not official NWS values.
T = Trace of Precipitation, MM = Missing Value Source: NWS Daily Summary

Daily Weather History Graph

Daily Weather History Graph

Search for Another Location

Airport:

Trip Planner

Search our weather history database for the weather conditions in past years. The results will help you decide how hot, cold, wet, or windy it might be!

Date:

Astronomy

Apr. 19, 2013 Rise Set
Actual Time 6:14 AM EDT 7:41 PM EDT
Civil Twilight 5:45 AM EDT 8:09 PM EDT
Nautical Twilight 5:11 AM EDT 8:43 PM EDT
Astronomical Twilight 4:35 AM EDT 9:19 PM EDT
Moon 1:23 PM EDT (4/19) 2:28 AM EDT (4/19)
Length of Visible Light 14h 23m
Length of Day
13h 26m
First Quarter, 61% of the Moon is Illuminated
Apr 19
First Quarter
Apr 25
Full
May 2
Last Quarter
May 9
New
May 18
First Quarter

Hourly Weather History & Observations

Time (EDT) Temp. Dew Point Humidity Pressure Visibility Wind Dir Wind Speed Gust Speed Precip Events Conditions
12:55 AM 58.6 °F 57.4 °F 96% 30.05 in 10.0 mi SSE 9.2 mph - N/A   Scattered Clouds
12:58 AM 59.0 °F 57.2 °F 94% 30.05 in 10.0 mi SSE 8.1 mph - N/A   Scattered Clouds
12:59 AM 59.0 °F 57.2 °F 94% 30.05 in 10.0 mi SSE 9.2 mph - N/A   Mostly Cloudy
1:00 AM 59.0 °F 57.2 °F 94% 30.05 in 10.0 mi SSE 10.4 mph - N/A   Mostly Cloudy
1:08 AM 59.0 °F 57.2 °F 94% 30.05 in 10.0 mi SSE 10.4 mph - N/A   Mostly Cloudy
1:24 AM 59.0 °F 59.0 °F 100% 30.04 in 10.0 mi South 12.7 mph - N/A   Overcast
1:28 AM 59.0 °F 59.0 °F 100% 30.04 in 10.0 mi South 13.8 mph - N/A   Overcast
1:39 AM 59.0 °F 59.0 °F 100% 30.03 in 10.0 mi SSE 16.1 mph 20.7 mph N/A   Overcast
1:45 AM 59.0 °F 59.0 °F 100% 30.03 in 10.0 mi SSE 16.1 mph - N/A   Overcast
1:55 AM 59.5 °F 58.6 °F 97% 30.03 in 10.0 mi South 13.8 mph 21.9 mph N/A   Overcast
2:34 AM 59.0 °F 59.0 °F 100% 30.01 in 10.0 mi SSE 12.7 mph - N/A   Overcast
2:54 AM 59.0 °F 59.0 °F 100% 30.00 in 10.0 mi SSE 9.2 mph - N/A   Scattered Clouds
2:55 AM 59.0 °F 58.5 °F 98% 30.00 in 10.0 mi SSE 9.2 mph - N/A   Scattered Clouds
3:24 AM 59.0 °F 59.0 °F 100% 29.99 in 10.0 mi SSE 8.1 mph - N/A   Partly Cloudy
3:55 AM 58.6 °F 58.3 °F 99% 29.98 in 10.0 mi South 10.4 mph 17.3 mph N/A   Partly Cloudy
4:40 AM 59.0 °F 59.0 °F 100% 29.98 in 10.0 mi South 9.2 mph - N/A   Partly Cloudy
4:55 AM 58.6 °F 58.3 °F 99% 29.97 in 10.0 mi South 8.1 mph - N/A   Partly Cloudy
4:57 AM 59.0 °F 59.0 °F 100% 29.97 in 10.0 mi South 9.2 mph - N/A   Partly Cloudy
5:15 AM 59.0 °F 59.0 °F 100% 29.96 in 10.0 mi South 8.1 mph - N/A   Partly Cloudy
5:55 AM 58.1 °F 57.7 °F 99% 29.96 in 10.0 mi SSE 8.1 mph - N/A   Clear
6:30 AM 59.0 °F 57.2 °F 94% 29.96 in 10.0 mi SSE 9.2 mph - N/A   Partly Cloudy
6:55 AM 59.0 °F 58.6 °F 99% 29.97 in 10.0 mi SSE 8.1 mph - N/A   Partly Cloudy
7:18 AM 60.8 °F 59.0 °F 94% 29.96 in 10.0 mi South 10.4 mph - N/A   Mostly Cloudy
7:30 AM 60.8 °F 59.0 °F 94% 29.96 in 10.0 mi South 12.7 mph - N/A   Mostly Cloudy
7:38 AM 60.8 °F 60.8 °F 100% 29.96 in 10.0 mi South 9.2 mph - N/A   Mostly Cloudy
7:55 AM 62.8 °F 60.6 °F 93% 29.96 in 10.0 mi SSW 13.8 mph 19.6 mph N/A   Mostly Cloudy
8:55 AM 66.4 °F 60.8 °F 82% 29.93 in 10.0 mi South 12.7 mph - N/A   Mostly Cloudy
9:28 AM 68.0 °F 60.8 °F 78% 29.93 in 10.0 mi SSW 15.0 mph 20.7 mph N/A   Mostly Cloudy
9:29 AM 68.0 °F 60.8 °F 78% 29.93 in 10.0 mi SSW 13.8 mph - N/A   Mostly Cloudy
9:43 AM 69.8 °F 60.8 °F 73% 29.91 in 10.0 mi SSW 13.8 mph - N/A   Overcast
9:55 AM 69.6 °F 61.5 °F 75% 29.91 in 10.0 mi SSW 17.3 mph 24.2 mph N/A   Overcast
10:00 AM 69.8 °F 60.8 °F 73% 29.91 in 10.0 mi South 11.5 mph 24.2 mph N/A   Mostly Cloudy
10:34 AM 71.6 °F 60.8 °F 69% 29.89 in 10.0 mi SSW 18.4 mph 27.6 mph N/A   Mostly Cloudy
10:55 AM 72.9 °F 61.7 °F 68% 29.88 in 10.0 mi SSW 20.7 mph 25.3 mph N/A   Overcast
11:00 AM 73.4 °F 60.8 °F 65% 29.88 in 10.0 mi SSW 13.8 mph 25.3 mph N/A   Overcast
11:01 AM 73.4 °F 60.8 °F 65% 29.88 in 10.0 mi SSW 16.1 mph 25.3 mph N/A   Overcast
11:10 AM 71.6 °F 60.8 °F 69% 29.88 in 10.0 mi SSW 25.3 mph 31.1 mph N/A   Overcast
11:13 AM 71.6 °F 60.8 °F 69% 29.88 in 10.0 mi SSW 24.2 mph 36.8 mph N/A   Overcast
11:24 AM 73.4 °F 62.6 °F 69% 29.87 in 10.0 mi SSW 21.9 mph 27.6 mph N/A   Mostly Cloudy
11:26 AM 73.4 °F 62.6 °F 69% 29.87 in 10.0 mi SSW 23.0 mph 27.6 mph N/A   Overcast
11:39 AM 73.4 °F 62.6 °F 69% 29.87 in 10.0 mi South 12.7 mph 20.7 mph N/A   Mostly Cloudy
11:40 AM 73.4 °F 62.6 °F 69% 29.87 in 10.0 mi South 15.0 mph 20.7 mph N/A   Overcast
11:48 AM 71.6 °F 62.6 °F 73% 29.87 in 10.0 mi South 16.1 mph 23.0 mph N/A Rain Light Rain
11:55 AM 70.3 °F 63.1 °F 78% 29.87 in 9.0 mi South 16.1 mph 21.9 mph 0.00 in Rain Light Rain
11:56 AM 69.8 °F 62.6 °F 78% 29.87 in 8.0 mi SSW 15.0 mph 21.9 mph N/A Rain Light Rain
12:12 PM 69.8 °F 64.4 °F 83% 29.85 in 9.0 mi SSW 11.5 mph 24.2 mph N/A Rain Light Rain
12:16 PM 69.8 °F 64.4 °F 83% 29.85 in 10.0 mi SSW 10.4 mph 23.0 mph N/A   Overcast
12:55 PM 74.3 °F 63.5 °F 69% 29.83 in 10.0 mi SSW 18.4 mph 26.5 mph 0.01 in   Overcast
12:59 PM 73.4 °F 62.6 °F 69% 29.82 in 10.0 mi South 18.4 mph 27.6 mph N/A   Overcast
1:01 PM 73.4 °F 62.6 °F 69% 29.82 in 10.0 mi SSW 18.4 mph 27.6 mph N/A   Overcast
1:03 PM 73.4 °F 62.6 °F 69% 29.82 in 10.0 mi SSW 23.0 mph 29.9 mph N/A   Overcast
1:07 PM 73.4 °F 62.6 °F 69% 29.82 in 10.0 mi SSW 15.0 mph 29.9 mph N/A   Overcast
1:09 PM 73.4 °F 62.6 °F 69% 29.81 in 10.0 mi South 20.7 mph 29.9 mph N/A   Overcast
1:34 PM 75.2 °F 62.6 °F 65% 29.80 in 10.0 mi South 19.6 mph 25.3 mph N/A   Overcast
1:55 PM 74.5 °F 63.0 °F 67% 29.79 in 10.0 mi South 13.8 mph - N/A   Overcast
2:55 PM 76.8 °F 62.6 °F 61% 29.75 in 10.0 mi South 17.3 mph 24.2 mph N/A   Mostly Cloudy
3:55 PM 75.4 °F 62.6 °F 64% 29.72 in 10.0 mi South 13.8 mph 24.2 mph N/A   Overcast
4:55 PM 73.4 °F 62.1 °F 68% 29.69 in 10.0 mi South 12.7 mph 21.9 mph N/A   Mostly Cloudy
5:55 PM 73.2 °F 63.0 °F 70% 29.68 in 10.0 mi South 16.1 mph 25.3 mph N/A   Partly Cloudy
6:55 PM 70.7 °F 62.8 °F 76% 29.67 in 10.0 mi South 17.3 mph 31.1 mph N/A   Scattered Clouds
7:55 PM 67.5 °F 62.6 °F 84% 29.65 in 10.0 mi South 18.4 mph 27.6 mph N/A   Clear
8:55 PM 67.3 °F 62.6 °F 85% 29.65 in 10.0 mi South 17.3 mph - N/A   Clear
9:44 PM 68.0 °F 62.6 °F 83% 29.68 in 10.0 mi SSW 17.3 mph 26.5 mph N/A Rain Light Rain
9:55 PM 68.7 °F 63.5 °F 83% 29.69 in 10.0 mi SW 16.1 mph 29.9 mph 0.00 in Rain Light Rain
10:14 PM 68.0 °F 62.6 °F 83% 29.68 in 10.0 mi SW 23.0 mph 32.2 mph N/A Rain Light Rain
10:21 PM 68.0 °F 60.8 °F 78% 29.68 in 10.0 mi WSW 17.3 mph 32.2 mph N/A Rain Light Rain
10:32 PM 68.0 °F 60.8 °F 78% 29.69 in 10.0 mi SW 13.8 mph 23.0 mph N/A   Mostly Cloudy
10:35 PM 68.0 °F 60.8 °F 78% 29.69 in 10.0 mi SW 17.3 mph 21.9 mph N/A   Mostly Cloudy
10:42 PM 66.2 °F 60.8 °F 83% 29.70 in 10.0 mi SW 16.1 mph 27.6 mph N/A Rain Light Rain
10:53 PM 66.2 °F 62.6 °F 88% 29.70 in 9.0 mi SW 15.0 mph 21.9 mph N/A Rain Rain
10:55 PM 65.7 °F 62.1 °F 88% 29.70 in 9.0 mi SW 16.1 mph 21.9 mph 0.02 in Rain Light Rain
11:05 PM 64.4 °F 62.6 °F 94% 29.69 in 10.0 mi SW 11.5 mph 18.4 mph N/A Rain Light Rain
11:13 PM 64.4 °F 62.6 °F 94% 29.69 in 10.0 mi SSW 11.5 mph 18.4 mph N/A Rain Light Rain
11:21 PM 64.4 °F 62.6 °F 94% 29.69 in 10.0 mi SSW 10.4 mph - N/A Rain Light Rain
11:30 PM 64.4 °F 62.6 °F 94% 29.68 in 10.0 mi SSW 10.4 mph - N/A   Overcast
11:35 PM 64.4 °F 62.6 °F 94% 29.69 in 10.0 mi SSW 10.4 mph - N/A   Overcast
11:43 PM 64.4 °F 62.6 °F 94% 29.69 in 10.0 mi SW 10.4 mph - N/A Rain Light Rain
11:52 PM 64.4 °F 62.6 °F 94% 29.68 in 10.0 mi WSW 8.1 mph - N/A Rain Light Rain
11:55 PM 64.2 °F 63.3 °F 97% 29.68 in 10.0 mi West 11.5 mph - 0.03 in Rain Light Rain